This is the latest recevied weather packets stored in our database for station/object KM5R. If no packets are shown the sender has not sent any weather packets the latest 10 day(s).
| Time | Temp. | Humidity | Pressure | Rain* | Wind** | Luminosity | Snow |
|---|---|---|---|---|---|---|---|
| 1777938392 | 27.22° C | 57% | 1009.2 hPa | 0 mm | - | 108 W/m² | - |
| 1777938090 | 27.22° C | 56% | 1009.3 hPa | 0 mm | - | 71 W/m² | - |
| 1777937785 | 27.22° C | 56% | 1009.1 hPa | 0 mm | - | 89 W/m² | - |
| 1777937481 | 27.22° C | 56% | 1009.2 hPa | 0 mm | - | 162 W/m² | - |
| 1777937179 | 27.22° C | 56% | 1009 hPa | 0 mm | - | 202 W/m² | - |
| 1777936876 | 27.22° C | 56% | 1009.3 hPa | 0 mm | - | 150 W/m² | - |
| 1777936572 | 27.22° C | 56% | 1009.4 hPa | 0 mm | - | 133 W/m² | - |
| 1777936269 | 27.22° C | 56% | 1009.3 hPa | 0 mm | - | 92 W/m² | - |
| 1777935964 | 27.78° C | 54% | 1009.3 hPa | 0 mm | - | 106 W/m² | - |
| 1777935664 | 27.78° C | 54% | 1009.1 hPa | 0 mm | - | 281 W/m² | - |
| 1777935361 | 27.78° C | 55% | 1009.4 hPa | 0 mm | - | 296 W/m² | - |
| 1777935057 | 27.78° C | 54% | 1009.8 hPa | 0 mm | - | 315 W/m² | - |
| 1777934754 | 27.78° C | 55% | 1009.7 hPa | 0 mm | - | 329 W/m² | - |
| 1777934452 | 27.78° C | 55% | 1009.7 hPa | 0 mm | - | 344 W/m² | - |
| 1777934149 | 28.33° C | 54% | 1009.7 hPa | 0 mm | - | 371 W/m² | - |
| 1777933844 | 28.33° C | 55% | 1009.5 hPa | 0 mm | - | 391 W/m² | - |
| 1777933541 | 27.78° C | 55% | 1009.7 hPa | 0 mm | - | 424 W/m² | - |
| 1777933238 | 27.78° C | 54% | 1009.7 hPa | 0 mm | - | 449 W/m² | - |
| 1777932936 | 27.78° C | 55% | 1009.7 hPa | 0 mm | - | 390 W/m² | - |
| 1777932632 | 27.78° C | 55% | 1009.9 hPa | 0 mm | - | 365 W/m² | - |
| 1777932329 | 27.78° C | 55% | 1009.8 hPa | 0 mm | - | 336 W/m² | - |
| 1777932026 | 27.78° C | 54% | 1009.8 hPa | 0 mm | - | 376 W/m² | - |
| 1777931722 | 27.78° C | 54% | 1010 hPa | 0 mm | - | 342 W/m² | - |
| 1777931420 | 27.78° C | 55% | 1010 hPa | 0 mm | - | 434 W/m² | - |
| 1777931116 | 27.78° C | 56% | 1010.1 hPa | 0 mm | - | 323 W/m² | - |
* Rain latest hour (hover to see other rain measurements)
** Current wind speed in m/s (hover to see current wind gust speed)